Location: Fort Wayne
(41.1310°N, 85.1290°W)
Time: 17:24:58
(UTC-04:00)

Meteor 2-9 Rocket - Visible Passes

Search period start: 20 April 2014 00:00
Search period end: 30 April 2014 00:00
Orbit: 792 x 896 km, 81.3° (Epoch: 19 April)

Date Brightness Start Highest point End Pass type
(mag) Time Alt. Az. Time Alt. Az. Time Alt. Az.
20 Apr 6.3 01:18:14 10° NNE 01:20:47 18° NE 01:20:47 18° NE visible
20 Apr 5.7 02:59:59 10° NNW 03:02:39 28° NNW 03:02:39 28° NNW visible
21 Apr 6.4 01:04:29 10° NNE 01:06:54 17° NE 01:06:54 17° NE visible
21 Apr 5.6 02:45:57 10° NNW 02:48:46 31° NNW 02:48:46 31° NNW visible
22 Apr 6.5 00:50:48 10° NNE 00:53:02 15° NE 00:53:02 15° NE visible
22 Apr 5.6 02:31:55 10° NNW 02:34:54 33° NNW 02:34:54 33° NNW visible
23 Apr 6.5 00:37:10 10° NNE 00:39:10 14° NE 00:39:10 14° NE visible
23 Apr 5.5 02:17:55 10° NNW 02:21:02 35° NNW 02:21:02 35° NNW visible
24 Apr 6.6 00:23:40 10° NE 00:25:19 12° NE 00:25:19 12° NE visible
24 Apr 5.5 02:03:55 10° N 02:07:11 37° N 02:07:11 37° N visible
25 Apr 6.6 00:10:25 10° NE 00:11:29 11° ENE 00:11:29 11° ENE visible
25 Apr 5.4 01:49:56 10° N 01:53:21 39° N 01:53:21 39° N visible
26 Apr 5.3 01:35:58 10° N 01:39:32 40° N 01:39:32 40° N visible
26 Apr 6.5 03:20:50 10° NW 03:21:24 11° WNW 03:21:24 11° WNW visible
27 Apr 5.3 01:22:01 10° N 01:25:43 41° NNE 01:25:43 41° NNE visible
27 Apr 6.5 03:06:26 10° NW 03:07:35 13° WNW 03:07:35 13° WNW visible
28 Apr 5.3 01:08:04 10° N 01:11:55 41° NNE 01:11:55 41° NNE visible
28 Apr 6.4 02:52:08 10° NW 02:53:47 15° WNW 02:53:47 15° WNW visible
29 Apr 5.3 00:54:08 10° N 00:58:07 40° NNE 00:58:07 40° NNE visible
29 Apr 6.2 02:37:53 10° NW 02:39:59 18° WNW 02:39:59 18° WNW visible
